Regional Weather Roundup
Issued by NWS Glasgow, MT

Home | Current Version | Previous Version | Text Only | Print | Product List | Glossary On
Versions: 1 2 3 4 5 6 7 8 9 10 11 12 13 14 15 16 17 18 19 20 21 22 23 24 25 26 27 28 29 30 31 32 33 34 35 36 37 38 39 40 41 42 43 44 45 46 47 48 49 50
000
ASUS45 KGGW 251015
RWRGGW
HOURLY WEATHER ROUNDUP FOR NORTHEAST MONTANA
NATIONAL WEATHER SERVICE GLASGOW MONTANA
300 AM MST THU DEC 25 2014

NOTE: "FAIR" INDICATES FEW OR NO CLOUDS BELOW 12,000 FEET WITH NO
SIGNIFICANT WEATHER AND/OR OBSTRUCTIONS TO VISISBILITY.

NORTHEAST MONTANA


CITY           SKY/WX    TMP DP  RH WIND       PRES   REMARKS
GLASGOW        CLOUDY    28  21  75 NW15      29.68R
PLENTYWOOD       N/A     28  26  92 NW14        N/A
WOLF POINT     CLOUDY    27  21  78 W6        29.68R
JORDAN           N/A     29  24  82 N9        29.68R
WINNETT          N/A     29  28  96 N7G17       N/A
SIDNEY         PTCLDY    23  18  80 W10       29.66R
GLENDIVE       CLOUDY    27  21  80 N13       29.65R
MALTA            N/A     29  23  78 N5          N/A
SCOBEY           N/A     26  18  71 NW15G21   29.64R

FORT PECK REPORTS


CITY           SKY/WX    TMP DP  RH WIND       PRES   REMARKS
FORT PECK        N/A     29  24  82 NW12        N/A
THE PINES        N/A     30  24  78 N8G20       N/A

SOUTHEAST MONTANA


CITY           SKY/WX    TMP DP  RH WIND       PRES   REMARKS
BILLINGS       FLURRIES  29  26  89 NE20      29.62R
MILES CITY     CLOUDY    31  27  85 N12       29.63R
BAKER          MOCLDY    27  24  89 N6        29.59R
LIVINGSTON     LGT SNOW  28  25  88 E22       29.57R FOG

CENTRAL MONTANA


CITY           SKY/WX    TMP DP  RH WIND       PRES   REMARKS
HAVRE          PTCLDY    24  20  84 NW3       29.76R
LEWISTOWN      CLOUDY    26  24  92 W7        29.68R
GREAT FALLS    MIX PCPN  24  20  84 N7        29.74R
CUT BANK       CLOUDY    23  19  85 NW13      29.76R
HELENA         CLOUDY    28  22  78 NW14      29.69R
BUTTE          LGT SNOW  24  18  77 N20G26    29.57R
BOZEMAN        CLOUDY    30  23  75 N6        29.57R

WESTERN MONTANA


CITY           SKY/WX    TMP DP  RH WIND       PRES   REMARKS
MISSOULA       LGT SNOW  31  30  96 NW8       29.75R FOG
KALISPELL      NOT AVBL

NORTH DAKOTA


CITY           SKY/WX    TMP DP  RH WIND       PRES   REMARKS
WILLISTON      CLOUDY    24  20  84 CALM      29.62R
DICKINSON      CLOUDY    27  22  81 NW12      29.56R
MINOT          CLOUDY    27  22  81 W9        29.55R
BISMARCK       MOCLDY    25  23  92 W6        29.58R

SOUTHERN SASKATCHEWAN


CITY           SKY/WX    TMP DP  RH WIND       PRES   REMARKS
REGINA         FLURRIES  23  21  93 NW14      29.65R
ESTEVAN        FLURRIES  27  23  86 NW17G24   29.59R
SWIFT CURRENT  CLOUDY    21  18  86 NW18G25   29.70R



USA.gov is the U.S. government's official web portal to all federal, state and local government web resources and services.